| time (UTC) | temp C | wind direction | speed KPH | gust KPH | rain 1hr cm | rain 24hr cm | rain mn cm | humidity % | barometer mb |
| 20260506004540 | 23 | 4.8 | 11.3 | 0.00 | 0.00 | 0.00 | 37 | 1009.8 | |
| 20260506003538 | 24 | 3.2 | 11.3 | 0.00 | 0.00 | 0.00 | 37 | 1009.7 | |
| 20260506002518 | 24 | 3.2 | 8.0 | 0.00 | 0.00 | 0.00 | 36 | 1009.6 | |
| 20260506001518 | 24 | 4.8 | 14.5 | 0.00 | 0.00 | 0.00 | 36 | 1009.6 | |
| 20260506000518 | 25 | 6.4 | 12.9 | 0.00 | 0.00 | 0.00 | 35 | 1009.4 | |
| 20260505235518 | 25 | 6.4 | 11.3 | 0.00 | 0.00 | 0.00 | 35 | 1009.4 | |
| 20260505234519 | 25 | 4.8 | 9.7 | 0.00 | 0.00 | 0.00 | 35 | 1009.4 | |
| 20260505233519 | 25 | 6.4 | 14.5 | 0.00 | 0.00 | 0.00 | 34 | 1009.3 | |
| 20260505232523 | 25 | 6.4 | 14.5 | 0.00 | 0.00 | 0.00 | 34 | 1009.3 | |
| 20260505231520 | 26 | 4.8 | 8.0 | 0.00 | 0.00 | 0.00 | 34 | 1009.3 | |
| 20260505230521 | 26 | 6.4 | 11.3 | 0.00 | 0.00 | 0.00 | 33 | 1009.2 | |
| 20260505225520 | 25 | 6.4 | 14.5 | 0.00 | 0.00 | 0.00 | 34 | 1009.2 | |
| 20260505224517 | 26 | 6.4 | 16.1 | 0.00 | 0.00 | 0.00 | 34 | 1009.3 | |
| 20260505223517 | 26 | 4.8 | 9.7 | 0.00 | 0.00 | 0.00 | 35 | 1009.4 | |
| 20260505222540 | 26 | 6.4 | 16.1 | 0.00 | 0.00 | 0.00 | 34 | 1009.4 | |
| 20260505221521 | 26 | 6.4 | 12.9 | 0.00 | 0.00 | 0.00 | 34 | 1009.4 | |
| 20260505220518 | 26 | 6.4 | 12.9 | 0.00 | 0.00 | 0.00 | 36 | 1009.4 | |
| 20260505215518 | 26 | 6.4 | 14.5 | 0.00 | 0.00 | 0.00 | 35 | 1009.3 | |
| 20260505214539 | 26 | 9.7 | 19.3 | 0.00 | 0.00 | 0.00 | 35 | 1009.2 | |
| 20260505213518 | 26 | 6.4 | 14.5 | 0.00 | 0.00 | 0.00 | 36 | 1009.3 | |
| 20260505212520 | 27 | 4.8 | 11.3 | 0.00 | 0.00 | 0.00 | 36 | 1009.2 | |
| 20260505211518 | 27 | 9.7 | 16.1 | 0.00 | 0.00 | 0.00 | 35 | 1009.0 | |
| 20260505210520 | 27 | 8.0 | 16.1 | 0.00 | 0.00 | 0.00 | 35 | 1009.0 | |
| 20260505205539 | 27 | 8.0 | 14.5 | 0.00 | 0.00 | 0.00 | 35 | 1009.0 | |
| 20260505204519 | 27 | 6.4 | 12.9 | 0.00 | 0.00 | 0.00 | 34 | 1009.0 | |
| 20260505203522 | 27 | 8.0 | 16.1 | 0.00 | 0.00 | 0.00 | 34 | 1008.9 | |
| 20260505202539 | 27 | 6.4 | 16.1 | 0.00 | 0.00 | 0.00 | 35 | 1009.0 | |
| 20260505201546 | 27 | 4.8 | 12.9 | 0.00 | 0.00 | 0.00 | 35 | 1009.1 | |
| 20260505200520 | 27 | 8.0 | 16.1 | 0.00 | 0.00 | 0.00 | 34 | 1009.0 | |
| 20260505195518 | 27 | 8.0 | 16.1 | 0.00 | 0.00 | 0.00 | 35 | 1009.3 | |
| 20260505194523 | 27 | 9.7 | 16.1 | 0.00 | 0.00 | 0.00 | 35 | 1009.3 | |
| 20260505193541 | 27 | 6.4 | 12.9 | 0.00 | 0.00 | 0.00 | 36 | 1009.4 | |
| 20260505192523 | 27 | 8.0 | 14.5 | 0.00 | 0.00 | 0.00 | 36 | 1009.5 | |
| 20260505191537 | 27 | 8.0 | 16.1 | 0.00 | 0.00 | 0.00 | 37 | 1009.7 | |
| 20260505190519 | 27 | 8.0 | 14.5 | 0.00 | 0.00 | 0.00 | 37 | 1009.7 | |
| 20260505185518 | 26 | 8.0 | 14.5 | 0.00 | 0.00 | 0.00 | 37 | 1009.9 | |
| 20260505184521 | 26 | 9.7 | 19.3 | 0.00 | 0.00 | 0.00 | 36 | 1010.0 | |
| 20260505183518 | 26 | 6.4 | 11.3 | 0.00 | 0.00 | 0.00 | 38 | 1010.1 | |
| 20260505182518 | 26 | 9.7 | 17.7 | 0.00 | 0.00 | 0.00 | 38 | 1010.4 | |
| 20260505181519 | 26 | 8.0 | 16.1 | 0.00 | 0.00 | 0.00 | 38 | 1010.5 | |
| 20260505180519 | 26 | 6.4 | 12.9 | 0.00 | 0.00 | 0.00 | 40 | 1010.7 | |
| 20260505175519 | 26 | 9.7 | 16.1 | 0.00 | 0.00 | 0.00 | 38 | 1010.7 | |
| 20260505174519 | 26 | 6.4 | 12.9 | 0.00 | 0.00 | 0.00 | 42 | 1010.7 | |
| 20260505173543 | 26 | 6.4 | 11.3 | 0.00 | 0.00 | 0.00 | 41 | 1010.8 | |
| 20260505172522 | 26 | 6.4 | 12.9 | 0.00 | 0.00 | 0.00 | 41 | 1010.9 | |
| 20260505171540 | 25 | 6.4 | 17.7 | 0.00 | 0.00 | 0.00 | 41 | 1011.0 | |
| 20260505170557 | 25 | 4.8 | 11.3 | 0.00 | 0.00 | 0.00 | 42 | 1011.2 | |
| 20260505165520 | 25 | 6.4 | 11.3 | 0.00 | 0.00 | 0.00 | 42 | 1011.3 | |
| 20260505164543 | 25 | 8.0 | 14.5 | 0.00 | 0.00 | 0.00 | 42 | 1011.4 | |
| 20260505163522 | 25 | 4.8 | 9.7 | 0.00 | 0.00 | 0.00 | 44 | 1011.6 | |
| 20260505162518 | 25 | 8.0 | 14.5 | 0.00 | 0.00 | 0.00 | 45 | 1011.7 | |
| 20260505161518 | 25 | 6.4 | 11.3 | 0.00 | 0.00 | 0.00 | 45 | 1011.9 | |
| 20260505160524 | 24 | 4.8 | 9.7 | 0.00 | 0.00 | 0.00 | 47 | 1011.9 | |
| 20260505152519 | 24 | 4.8 | 8.0 | 0.00 | 0.03 | 0.00 | 50 | 1012.0 | |
| 20260505151519 | 23 | 4.8 | 9.7 | 0.00 | 0.03 | 0.00 | 49 | 1011.9 | |
| 20260505150519 | 23 | 4.8 | 12.9 | 0.00 | 0.03 | 0.00 | 49 | 1011.9 | |
| 20260505140523 | 22 | 6.4 | 11.3 | 0.00 | 0.03 | 0.00 | 51 | 1012.1 | |
| 20260505124518 | 18 | 1.6 | 6.4 | 0.00 | 0.03 | 0.00 | 58 | 1012.6 | |
| 20260505123520 | 18 | 3.2 | 4.8 | 0.00 | 0.03 | 0.00 | 60 | 1012.6 | |
| 20260505122539 | 18 | 3.2 | 6.4 | 0.00 | 0.03 | 0.00 | 60 | 1012.6 | |
| 20260505121520 | 17 | 3.2 | 6.4 | 0.00 | 0.03 | 0.00 | 61 | 1012.5 | |
| 20260505120519 | 17 | 4.8 | 8.0 | 0.00 | 0.03 | 0.00 | 62 | 1012.5 | |
| 20260505115519 | 16 | 4.8 | 8.0 | 0.00 | 0.03 | 0.00 | 63 | 1012.4 | |
| 20260505114516 | 16 | 4.8 | 8.0 | 0.00 | 0.03 | 0.00 | 64 | 1012.4 | |
| 20260505113520 | 15 | 3.2 | 6.4 | 0.00 | 0.03 | 0.00 | 67 | 1012.3 | |
| 20260505112521 | 15 | 4.8 | 8.0 | 0.00 | 0.03 | 0.00 | 69 | 1012.2 | |
| 20260505111521 | 14 | 3.2 | 6.4 | 0.00 | 0.03 | 0.00 | 69 | 1012.1 | |
| 20260505110517 | 14 | 4.8 | 6.4 | 0.00 | 0.03 | 0.00 | 70 | 1012.0 | |
| 20260505101518 | 13 | 4.8 | 9.7 | 0.00 | 0.03 | 0.00 | 72 | 1011.6 | |
| 20260505100518 | 13 | 3.2 | 6.4 | 0.00 | 0.03 | 0.00 | 73 | 1011.6 | |
| 20260505095518 | 13 | 3.2 | 6.4 | 0.00 | 0.03 | 0.00 | 73 | 1011.4 | |
| 20260505094551 | 13 | 3.2 | 6.4 | 0.00 | 0.03 | 0.00 | 72 | 1011.4 | |
| 20260505093521 | 13 | 3.2 | 6.4 | 0.00 | 0.03 | 0.00 | 71 | 1011.3 | |
| 20260505092525 | 14 | 3.2 | 6.4 | 0.00 | 0.03 | 0.00 | 71 | 1011.3 | |
| 20260505091519 | 14 | 3.2 | 6.4 | 0.00 | 0.03 | 0.00 | 71 | 1011.2 | |
| 20260505090519 | 14 | 3.2 | 6.4 | 0.00 | 0.03 | 0.00 | 71 | 1011.3 | |
| 20260505085517 | 14 | 3.2 | 8.0 | 0.00 | 0.03 | 0.00 | 71 | 1011.3 | |
| 20260505084531 | 14 | 3.2 | 8.0 | 0.00 | 0.03 | 0.00 | 70 | 1011.3 | |
| 20260505083520 | 15 | 3.2 | 8.0 | 0.00 | 0.03 | 0.00 | 69 | 1011.3 | |
| 20260505082522 | 15 | 4.8 | 8.0 | 0.00 | 0.03 | 0.00 | 69 | 1011.3 | |
| 20260505081517 | 15 | 4.8 | 9.7 | 0.00 | 0.03 | 0.00 | 70 | 1011.3 | |
| 20260505080517 | 15 | 4.8 | 9.7 | 0.00 | 0.03 | 0.00 | 70 | 1011.2 | |
| 20260505075525 | 15 | 4.8 | 9.7 | 0.00 | 0.03 | 0.00 | 70 | 1011.1 | |
| 20260505074520 | 15 | 4.8 | 8.0 | 0.00 | 0.03 | 0.00 | 69 | 1011.0 | |
| 20260505073517 | 15 | 4.8 | 8.0 | 0.00 | 0.03 | 0.00 | 69 | 1011.0 | |
| 20260505072518 | 15 | 4.8 | 8.0 | 0.00 | 0.03 | 0.00 | 69 | 1011.0 | |
| 20260505071557 | 15 | 3.2 | 6.4 | 0.00 | 0.03 | 0.00 | 68 | 1010.9 | |
| 20260505070519 | 15 | 3.2 | 8.0 | 0.00 | 0.03 | 0.00 | 68 | 1010.9 | |
| 20260505065519 | 15 | 4.8 | 6.4 | 0.00 | 0.03 | 0.00 | 67 | 1010.9 | |
| 20260505064520 | 15 | 4.8 | 8.0 | 0.00 | 0.03 | 0.00 | 67 | 1010.8 | |
| 20260505063517 | 15 | 3.2 | 8.0 | 0.00 | 0.03 | 0.00 | 69 | 1011.0 | |
| 20260505062518 | 15 | 3.2 | 8.0 | 0.00 | 0.03 | 0.00 | 69 | 1011.0 | |
| 20260505061542 | 15 | 3.2 | 9.7 | 0.00 | 0.03 | 0.00 | 68 | 1011.0 | |
| 20260505060523 | 15 | 3.2 | 11.3 | 0.00 | 0.03 | 0.00 | 69 | 1011.0 | |
| 20260505055517 | 15 | 3.2 | 6.4 | 0.00 | 0.03 | 0.00 | 70 | 1011.0 | |
| 20260505054539 | 15 | 0.0 | 3.2 | 0.00 | 0.03 | 0.00 | 68 | 1011.0 | |
| 20260505053518 | 16 | 3.2 | 4.8 | 0.00 | 0.03 | 0.00 | 66 | 1011.1 | |
| 20260505052518 | 16 | 1.6 | 4.8 | 0.00 | 0.03 | 0.00 | 64 | 1011.1 | |
| 20260505051518 | 17 | 3.2 | 6.4 | 0.00 | 0.03 | 0.00 | 62 | 1011.2 | |
| 20260505050538 | 17 | 3.2 | 9.7 | 0.00 | 0.03 | 0.00 | 61 | 1011.3 | |
| 20260505041518 | 17 | 4.8 | 9.7 | 0.00 | 0.03 | 0.00 | 59 | 1011.0 | |
| 20260505040518 | 16 | 3.2 | 8.0 | 0.00 | 0.03 | 0.00 | 60 | 1010.9 | |
| 20260505035514 | 17 | 4.8 | 6.4 | 0.00 | 0.03 | 0.03 | 60 | 1010.9 | |
| 20260505034514 | 17 | 3.2 | 6.4 | 0.00 | 0.03 | 0.03 | 58 | 1011.0 | |
| 20260505033517 | 17 | 3.2 | 8.0 | 0.00 | 0.03 | 0.03 | 58 | 1011.0 | |
| 20260505032517 | 17 | 3.2 | 6.4 | 0.00 | 0.03 | 0.03 | 57 | 1011.1 | |
| 20260505031517 | 17 | 3.2 | 8.0 | 0.00 | 0.03 | 0.03 | 57 | 1011.0 | |
| 20260505030517 | 16 | 3.2 | 6.4 | 0.00 | 0.03 | 0.03 | 58 | 1011.0 | |
| 20260505025517 | 16 | 3.2 | 6.4 | 0.00 | 0.03 | 0.03 | 58 | 1010.9 | |
| 20260505024536 | 17 | 3.2 | 6.4 | 0.00 | 0.03 | 0.03 | 57 | 1011.0 | |
| 20260505023539 | 17 | 1.6 | 3.2 | 0.00 | 0.03 | 0.03 | 55 | 1010.9 | |
| 20260505022518 | 17 | 1.6 | 3.2 | 0.00 | 0.03 | 0.03 | 55 | 1010.9 | |
| 20260505021524 | 17 | 1.6 | 3.2 | 0.00 | 0.03 | 0.03 | 55 | 1010.8 | |
| 20260505020519 | 18 | 1.6 | 3.2 | 0.00 | 0.03 | 0.03 | 52 | 1010.8 | |
| 20260505015539 | 18 | 3.2 | 4.8 | 0.00 | 0.03 | 0.03 | 51 | 1010.7 | |
| 20260505014524 | 19 | 3.2 | 4.8 | 0.00 | 0.03 | 0.03 | 51 | 1010.7 | |
| 20260505013522 | 19 | 3.2 | 4.8 | 0.00 | 0.03 | 0.03 | 50 | 1010.5 | |
| 20260505012524 | 20 | 3.2 | 6.4 | 0.00 | 0.03 | 0.03 | 49 | 1010.4 | |
| 20260505011517 | 20 | 4.8 | 6.4 | 0.00 | 0.03 | 0.03 | 49 | 1010.2 | |
| 20260505010523 | 20 | 4.8 | 8.0 | 0.00 | 0.03 | 0.03 | 47 | 1010.3 | |
| 20260505005524 | 20 | 3.2 | 6.4 | 0.00 | 0.03 | 0.03 | 47 | 1010.1 |